Vertical_Velocity
1 4 4 2 1 2 1 1 2 3 2 -2 -2 1 -2 8 7 -6 14 -4 1 -0 2 -3 -1 -2 0 0 -3 -5 10 -9 5 2 -1 14 -2 -4 0 -4 1 2 4 -5 8 3 -6 -4 6 -2 1 -1 -5 -2
1 0 2 4 2 2 1 -0 -1 1 2 -0 -1 -7 5 4 12 13 -0 -1 8 0 -1 3 2 15 -5 0 9 -9 -0 -1 14 5 -6 2 -3 2 5 -6 10 3 -15 -4 -4 -6 -3 -5 -1 3 -2 1 -0 -1
1 2 1 6 6 7 7 1 2 3 2 -2 1 2 -2 4 4 11 -2 5 -3 6 9 -3 3 5 5 -7 -1 3 -6 5 -1 10 10 4 2 6 0 -2 6 -0 3 3 11 -3 2 4 -0 -3 4 5 -0 -4
0 1 2 1 1 3 1 1 4 1 -1 -1 0 2 6 4 7 10 -9 1 14 15 -2 -6 -4 -7 6 4 1 -3 -4 0 2 13 10 2 5 0 -4 3 3 1 3 -1 -0 1 2 -4 -5 4 -5 -2 4 3
4 1 1 1 1 2 -2 2 3 2 5 -1 8 6 3 5 17 9 6 1 14 -3 3 -3 3 -2 0 -3 -4 0 -1 6 3 14 -1 0 7 11 -2 3 -0 -0 -5 -0 -3 5 -3 -12 2 -1 1 -1 0 1
1 1 1 2 -1 3 -0 2 8 9 7 10 4 2 4 11 22 12 20 -1 -1 -7 9 3 3 -17 -4 -5 1 -2 3 -0 3 2 -1 2 3 11 5 0 -6 -0 -1 -5 1 -8 -2 1 3 1 1 3 1 -2
-1 1 0 1 -0 2 4 -1 -3 2 6 3 -1 -0 1 7 11 2 -18 -11 7 13 13 2 -4 -2 -3 -7 1 1 -0 -2 11 5 3 6 12 9 3 -1 -6 1 -8 -1 -5 3 4 1 -3 1 1 0 -3 -3
-0 -2 -2 -1 -1 1 2 -1 -1 -0 -2 -0 1 1 4 14 25 6 1 -1 8 -0 1 3 -6 1 1 -1 -1 1 3 2 3 2 4 1 8 -0 2 1 -1 -9 -5 0 1 3 1 2 5 3 -1 -4 -2 1
-3 -1 -3 -2 -1 3 2 -1 -1 -2 1 4 8 10 27 25 -3 -2 12 4 1 2 -3 -9 -2 -9 0 -2 1 3 4 1 -0 2 -2 5 1 -5 -3 -2 -5 -2 1 3 4 4 3 1 -1 -1 -0 -1 1 0
-0 -3 1 2 1 2 1 0 2 4 -0 12 29 22 46 -7 7 13 19 -0 7 7 5 -7 -2 -3 -2 3 -0 3 2 5 -3 -1 4 -1 -3 -2 -4 -9 0 5 4 5 3 0 1 -1 -1 1 0 -1 1 2
-2 -1 -1 -1 -2 -2 -1 -1 3 11 55 37 18 5 -11 11 14 10 8 20 32 6 -13 -6 1 4 1 1 -0 0 4 -3 -2 -7 -0 1 -9 -5 -6 1 2 -0 1 1 1 1 -3 -2 1 -3 1 3 -3 -4
-0 1 -1 1 -4 -2 6 9 7 1 -5 -8 -8 -1 -1 7 8 8 6 4 -14 -1 -14 -14 -3 6 4 1 1 1 -3 2 -8 -7 2 -6 -10 -1 -0 -3 -1 -0 3 2 0 -4 -0 -1 -2 -3 3 -2 -4 -5
3 3 6 8 8 8 4 5 1 3 -6 4 21 5 6 14 10 -5 -13 -8 7 1 -6 -16 -1 8 6 9 -0 -1 3 -3 -7 2 -5 -7 -2 -1 -5 -3 -1 2 1 -1 -6 1 -1 -4 -1 3 0 -6 -5 -6
1 2 3 2 2 2 1 -3 -7 -6 4 16 -3 -7 -6 -9 -5 -8 -10 -9 -10 -18 -1 -0 12 -6 0 -3 -1 5 4 -15 2 -2 -10 -9 -2 -2 -2 0 2 -1 -1 -0 3 -2 -4 1 1 -3 -7 -6 -5 -4
0 -0 -0 1 2 0 -2 -4 8 10 12 1 -5 -11 -12 3 -2 4 -7 -2 0 5 -1 -3 13 7 0 -8 -3 -3 -1 -3 -3 -8 -10 -6 -2 0 1 1 0 -0 3 1 -3 -5 0 -1 -5 -6 -5 -5 -3 -0
1 4 5 -1 -4 4 18 13 10 15 6 -6 -4 2 -12 -5 -6 -2 6 13 12 -1 4 14 4 -1 -4 -4 -5 -3 -2 -7 -11 -4 -1 -4 -3 -3 0 0 -2 1 -1 -3 -1 0 -3 -4 -6 -5 -4 -2 -0 -1
-3 -5 -0 -4 3 10 11 9 13 11 2 -2 -8 -2 -0 6 5 3 5 13 5 9 1 2 -9 -3 -2 -4 -1 -2 -8 -6 -3 -4 -4 -0 1 -1 -2 -0 -4 -1 -3 2 1 -3 -3 -6 -3 -3 -2 -1 -2 -3
6 -7 -1 -0 3 2 3 10 9 1 -0 1 1 -0 2 6 4 -0 1 5 7 6 6 -1 -6 -5 -4 -2 -5 -10 -7 -5 -6 1 -3 -2 -3 0 1 -2 -3 -2 2 -1 -3 -3 -3 -3 -3 -1 -0 -2 -3 -3
1 -4 -1 -1 5 8 10 15 6 3 6 -3 1 0 1 1 4 5 15 12 12 2 -3 -3 -3 -6 -9 -6 -3 -2 -4 2 -2 -3 -2 -0 1 -0 -3 -3 -4 0 1 -1 -1 -3 -4 -3 -1 -1 -2 -2 -4 -3
6 4 14 12 7 5 -2 6 -2 2 6 9 5 9 4 7 13 10 4 8 -6 -3 -2 -3 -0 2 -2 -4 -3 4 -1 -0 -1 -7 -4 -3 -3 -2 -3 -2 1 1 1 -1 -3 -4 -3 -1 0 -0 -2 -3 -4 -3
6 8 8 5 2 4 -2 3 -1 2 7 -0 7 3 2 4 2 2 -3 -6 7 7 2 1 1 0 1 1 1 1 -2 1 4 5 -1 -6 -3 -4 -0 3 1 0 -2 -3 -3 -4 -1 0 1 -2 -3 -2 -2 -2
-1 -0 1 2 4 1 -3 1 -3 -3 -1 2 6 -2 -2 -1 -0 4 6 5 2 -0 2 2 1 1 -2 -2 -3 -0 0 -2 -4 -5 -4 -2 -1 1 -1 -1 -1 -2 -1 -1 -3 1 -1 0 -2 -2 -2 -2 -2 -1
-1 3 4 -1 -1 2 9 2 2 -0 0 0 1 -2 -2 -0 -2 3 2 1 1 2 1 1 -1 -3 4 -1 -1 -1 -3 -2 -2 -1 -1 0 -2 -2 1 1 -2 -2 -2 -2 0 -0 -0 -2 -1 -2 -2 -2 -2 -1
5 2 -2 -8 -9 -2 -3 3 -2 -4 2 1 0 -1 4 3 5 2 -2 -3 -1 0 -2 -1 2 -1 0 2 -0 -3 -5 -4 0 -0 -1 -4 -0 2 -3 -4 -2 -2 -0 1 -1 -0 -0 -1 -1 -1 -1 -1 -1 0
1 2 2 -0 -1 1 -2 -3 -2 -4 -5 -1 2 0 1 1 -0 -3 -3 -6 -4 -3 -3 1 3 3 2 -0 -5 -2 2 0 0 -1 -2 1 3 -3 -2 -1 -1 2 2 -0 -1 -1 -1 -1 -1 -1 -1 -1 -1 -0
-1 2 2 4 1 -1 -5 -3 -3 -6 -4 -2 -2 -0 2 1 -3 -1 -0 2 -1 0 3 3 2 -5 -5 -3 1 1 -1 -0 -2 -2 1 2 -4 -3 -1 -1 2 -2 -2 0 -0 -2 -1 -2 -1 -1 -0 -0 -1 -1
7 3 3 3 3 3 -0 2 6 2 3 2 -1 1 -2 -2 -0 1 -1 0 4 3 -2 -3 -3 5 3 1 -3 -6 -3 -2 1 0 1 -4 -4 2 2 3 -2 -2 -1 0 -1 -1 -0 -1 -1 -0 -1 -1 -1 0
3 2 3 1 2 5 2 3 1 -0 1 -2 -1 -1 -1 -1 -3 -2 -1 -1 -6 -9 -4 -3 -1 2 -1 -3 0 1 1 -0 -1 0 -0 1 3 4 4 1 -2 -1 -1 -2 -2 -1 -0 -1 -1 -1 -2 -0 1 -0
-0 1 3 1 4 4 5 1 -2 -4 -3 -3 -4 -4 -6 -3 -2 -5 -3 -3 -0 1 0 2 3 -2 -6 -3 -1 0 -0 -0 1 1 1 4 4 2 1 -1 -1 -1 -2 -2 -1 -1 -1 -2 -1 -1 -1 -0 -1 0
-2 -1 2 3 5 3 1 -1 0 1 2 5 4 2 -3 -4 -2 -0 2 2 2 1 1 2 3 3 4 2 -1 -1 0 1 1 1 3 3 3 -0 -1 -1 -2 -2 -2 -2 -1 -1 -1 -1 -1 -0 -0 -1 -1 -1
2 2 4 1 -2 -1 -1 -1 1 2 3 2 3 5 3 -3 -1 -1 -3 -3 0 -3 -4 -1 -1 -0 -1 -2 0 2 2 2 2 3 3 1 1 -1 -2 -2 -1 -1 -1 -1 -0 -0 -1 -0 -0 -0 -0 -0 -1 -2
2 2 1 -4 -2 1 2 4 1 -1 2 3 -1 -3 1 -1 -1 0 1 -1 -2 -1 0 0 0 -1 -1 1 2 2 2 2 3 4 2 -0 -1 1 0 -1 -1 -1 -0 1 0 -0 -1 -1 -1 -1 -0 1 2 2
2 1 5 3 2 3 5 1 3 3 -1 -4 -1 -0 1 3 1 -1 -0 -0 -1 0 1 0 -0 1 3 3 2 2 2 2 2 0 -1 -0 1 1 -0 -0 -1 -0 -0 -1 -1 -1 -1 -1 -1 -0 -0 -1 -2 -2
Height
2759 2768 2778 2788 2798 2809 2820 2831 2843 2855 2867 2880 2892 2904 2915 2927 2940 2946 2954 2968 2979 2985 2991 2996 3000 3007 3013 3018 3022 3026 3034 3032 3040 3042 3044 3037 3038 3038 3038 3039 3039 3041 3043 3042 3042 3040 3034 3031 3031 3033 3028 3026 3025 3023
2749 2758 2767 2777 2788 2799 2810 2822 2833 2846 2858 2870 2883 2896 2907 2920 2932 2941 2947 2959 2971 2979 2982 2991 2996 3000 3006 3011 3018 3018 3021 3023 3028 3031 3031 3031 3032 3030 3028 3029 3032 3031 3032 3033 3035 3030 3027 3023 3021 3022 3022 3020 3018 3015
2740 2749 2759 2769 2780 2791 2802 2814 2825 2837 2850 2862 2875 2887 2900 2913 2925 2933 2940 2953 2964 2971 2977 2982 2987 2994 2999 3005 3009 3013 3013 3018 3021 3024 3024 3023 3022 3020 3021 3020 3021 3022 3024 3023 3024 3022 3020 3018 3018 3018 3017 3015 3012 3009
2732 2741 2751 2762 2772 2784 2795 2807 2819 2831 2843 2856 2869 2882 2894 2907 2920 2927 2933 2946 2959 2967 2971 2973 2980 2987 2993 2998 3002 3006 3009 3011 3015 3016 3014 3012 3012 3014 3013 3013 3013 3016 3017 3016 3015 3014 3014 3012 3012 3012 3009 3008 3007 3005
2722 2734 2745 2756 2767 2778 2790 2801 2813 2826 2838 2851 2864 2877 2890 2903 2915 2923 2934 2945 2955 2964 2966 2969 2974 2981 2990 2993 2996 2998 3002 3004 3006 3007 3004 3004 3002 3008 3006 3007 3005 3006 3009 3009 3007 3009 3008 3007 3005 3006 3005 3003 3000 2998
2715 2727 2740 2752 2763 2774 2786 2798 2810 2822 2835 2848 2861 2874 2886 2899 2910 2919 2931 2939 2946 2956 2964 2967 2969 2977 2983 2988 2990 2993 2995 2997 2999 2999 2996 2997 2998 3002 3000 2998 2997 3000 3001 3001 3003 3002 3001 3003 3003 3002 3000 2997 2993 2990
2709 2722 2736 2749 2761 2772 2784 2797 2809 2821 2834 2847 2861 2874 2885 2896 2905 2913 2919 2925 2937 2950 2957 2963 2966 2969 2975 2983 2984 2986 2987 2989 2991 2990 2990 2991 2991 2994 2991 2991 2992 2993 2996 2997 2996 2998 2999 3000 2999 2997 2994 2991 2987 2984
2706 2720 2734 2748 2760 2771 2784 2796 2809 2822 2835 2848 2861 2873 2885 2896 2907 2915 2922 2930 2940 2948 2954 2957 2957 2966 2969 2972 2977 2979 2981 2983 2983 2983 2983 2984 2985 2984 2983 2985 2987 2987 2990 2993 2994 2996 2997 2996 2993 2992 2989 2984 2981 2977
2709 2723 2735 2748 2760 2772 2785 2797 2809 2822 2835 2848 2862 2875 2886 2893 2901 2910 2920 2929 2935 2942 2943 2946 2951 2959 2964 2966 2970 2974 2976 2977 2979 2978 2979 2981 2976 2976 2976 2979 2980 2983 2986 2990 2992 2992 2991 2989 2987 2985 2982 2978 2972 2965
2717 2729 2740 2751 2763 2775 2786 2798 2811 2822 2833 2847 2860 2868 2875 2882 2896 2909 2920 2924 2930 2933 2936 2939 2946 2951 2960 2960 2965 2971 2970 2972 2971 2973 2973 2971 2969 2971 2972 2974 2978 2981 2985 2986 2986 2987 2986 2984 2982 2979 2973 2965 2962 2960
2728 2737 2747 2757 2767 2778 2789 2800 2812 2824 2831 2835 2849 2861 2873 2885 2896 2905 2910 2911 2914 2921 2924 2932 2939 2944 2949 2955 2960 2965 2965 2966 2966 2971 2971 2965 2960 2963 2967 2970 2975 2979 2981 2982 2982 2982 2981 2979 2975 2969 2965 2962 2959 2954
2736 2745 2754 2763 2772 2781 2791 2802 2813 2821 2831 2841 2851 2862 2874 2887 2893 2899 2899 2902 2904 2909 2910 2920 2929 2937 2944 2950 2956 2960 2960 2963 2962 2968 2966 2957 2952 2956 2961 2966 2971 2975 2976 2977 2977 2977 2975 2969 2965 2966 2964 2958 2953 2949
2746 2754 2761 2770 2779 2788 2798 2808 2816 2824 2834 2846 2857 2863 2870 2874 2879 2880 2880 2887 2893 2893 2899 2908 2921 2931 2938 2945 2950 2953 2955 2955 2962 2964 2955 2946 2945 2951 2957 2962 2967 2970 2972 2973 2972 2970 2966 2966 2965 2963 2956 2952 2949 2946
2761 2768 2775 2782 2790 2797 2805 2813 2821 2829 2839 2847 2851 2858 2865 2868 2868 2870 2876 2883 2889 2897 2900 2906 2916 2924 2931 2938 2942 2945 2947 2953 2956 2951 2938 2937 2942 2947 2953 2958 2962 2966 2968 2968 2966 2963 2963 2963 2959 2955 2952 2949 2946 2943
2771 2777 2783 2790 2797 2804 2811 2819 2827 2835 2841 2847 2854 2858 2858 2859 2862 2867 2871 2876 2884 2892 2896 2904 2914 2918 2925 2933 2936 2940 2944 2945 2938 2928 2929 2935 2938 2943 2948 2954 2959 2961 2962 2962 2961 2961 2959 2956 2953 2951 2948 2946 2943 2940
2777 2783 2790 2795 2801 2808 2814 2821 2829 2837 2841 2846 2848 2849 2852 2856 2857 2859 2863 2871 2879 2885 2893 2901 2906 2913 2918 2922 2926 2929 2931 2925 2922 2923 2927 2931 2936 2942 2947 2951 2955 2957 2958 2958 2958 2957 2953 2950 2948 2947 2945 2943 2940 2937
2783 2787 2793 2799 2806 2813 2819 2826 2832 2838 2842 2842 2844 2846 2847 2849 2855 2858 2862 2868 2875 2883 2888 2891 2897 2904 2910 2914 2916 2915 2915 2918 2918 2919 2924 2930 2935 2940 2944 2949 2953 2955 2954 2954 2953 2950 2948 2947 2945 2944 2943 2940 2936 2932
2793 2796 2801 2806 2811 2816 2823 2829 2834 2837 2838 2839 2841 2843 2846 2849 2851 2855 2860 2866 2873 2879 2883 2887 2894 2896 2899 2900 2900 2905 2911 2913 2915 2920 2924 2929 2935 2940 2945 2949 2950 2950 2950 2949 2946 2945 2944 2944 2943 2942 2940 2936 2932 2927
2797 2799 2803 2809 2814 2820 2826 2831 2832 2835 2837 2838 2840 2842 2845 2847 2852 2858 2861 2866 2872 2876 2882 2887 2891 2892 2893 2895 2898 2903 2908 2912 2914 2919 2926 2931 2937 2941 2943 2945 2945 2946 2946 2943 2942 2942 2942 2942 2941 2939 2936 2932 2928 2924
2798 2803 2808 2813 2817 2822 2826 2829 2832 2836 2839 2841 2842 2844 2847 2851 2857 2861 2865 2871 2876 2883 2888 2887 2886 2889 2892 2894 2898 2904 2908 2913 2918 2921 2925 2931 2935 2938 2940 2941 2942 2941 2939 2939 2939 2940 2940 2939 2938 2935 2931 2928 2924 2920
2803 2807 2812 2815 2820 2825 2827 2830 2834 2838 2841 2844 2847 2849 2851 2855 2859 2864 2869 2875 2882 2885 2886 2885 2887 2889 2893 2896 2902 2907 2912 2917 2921 2926 2929 2930 2933 2935 2936 2937 2937 2936 2936 2937 2937 2937 2936 2935 2933 2930 2927 2923 2920 2916
2807 2811 2815 2820 2823 2826 2830 2833 2836 2839 2844 2847 2852 2855 2858 2863 2868 2872 2876 2880 2883 2886 2887 2889 2891 2894 2897 2900 2904 2909 2913 2917 2922 2925 2927 2929 2931 2932 2933 2933 2933 2934 2934 2935 2934 2934 2933 2931 2929 2926 2922 2919 2915 2911
2813 2816 2819 2822 2825 2828 2833 2835 2837 2840 2845 2850 2856 2859 2864 2867 2870 2875 2878 2880 2883 2886 2888 2892 2895 2898 2901 2903 2907 2911 2915 2920 2922 2923 2926 2928 2929 2929 2930 2930 2931 2931 2931 2931 2931 2930 2928 2926 2924 2921 2918 2915 2911 2907
2821 2823 2824 2825 2826 2828 2832 2834 2838 2843 2848 2853 2858 2861 2866 2869 2872 2874 2876 2880 2883 2886 2890 2893 2897 2899 2903 2906 2909 2913 2916 2918 2920 2922 2924 2926 2926 2926 2927 2928 2928 2928 2927 2927 2927 2926 2924 2922 2920 2917 2914 2910 2907 2904
2822 2824 2826 2825 2827 2829 2832 2835 2840 2844 2848 2853 2858 2862 2866 2870 2873 2875 2877 2880 2883 2886 2890 2894 2898 2902 2906 2908 2911 2913 2916 2917 2919 2921 2922 2923 2922 2924 2925 2925 2925 2925 2925 2924 2923 2922 2920 2918 2915 2912 2910 2907 2904 2901
2822 2823 2823 2824 2826 2832 2834 2838 2841 2845 2851 2856 2860 2864 2867 2870 2873 2874 2877 2880 2883 2886 2891 2896 2900 2902 2905 2909 2911 2913 2914 2915 2917 2919 2920 2920 2921 2922 2922 2922 2922 2922 2922 2920 2919 2917 2915 2913 2911 2908 2905 2903 2900 2897
2822 2821 2821 2822 2825 2830 2834 2838 2842 2848 2852 2854 2857 2862 2866 2868 2870 2871 2874 2878 2883 2888 2892 2896 2899 2902 2905 2906 2908 2909 2911 2914 2916 2916 2916 2917 2918 2919 2920 2920 2919 2918 2917 2916 2915 2913 2911 2909 2906 2904 2902 2899 2896 2893
2818 2818 2820 2823 2826 2830 2832 2837 2842 2847 2849 2851 2856 2859 2862 2863 2866 2868 2872 2877 2881 2885 2888 2891 2896 2900 2902 2904 2906 2907 2910 2912 2912 2912 2914 2915 2916 2917 2917 2917 2915 2914 2914 2912 2910 2909 2907 2905 2902 2900 2897 2895 2892 2890
2818 2819 2822 2824 2827 2830 2834 2836 2839 2843 2847 2851 2854 2856 2860 2863 2865 2867 2871 2875 2879 2882 2887 2891 2895 2896 2898 2900 2902 2905 2907 2907 2908 2909 2911 2912 2913 2913 2913 2912 2912 2910 2909 2907 2906 2904 2902 2900 2897 2895 2893 2891 2888 2885
2819 2821 2823 2826 2828 2831 2834 2837 2840 2843 2847 2850 2854 2857 2860 2863 2866 2869 2872 2876 2879 2882 2885 2888 2891 2893 2896 2898 2900 2902 2902 2903 2905 2907 2907 2908 2908 2909 2909 2908 2907 2905 2904 2903 2901 2899 2897 2896 2893 2891 2889 2886 2884 2881
2818 2821 2824 2825 2827 2830 2833 2837 2840 2843 2847 2850 2853 2858 2861 2863 2866 2868 2871 2873 2876 2878 2881 2884 2886 2889 2891 2894 2896 2897 2899 2901 2902 2902 2902 2903 2903 2903 2903 2903 2902 2900 2899 2897 2896 2894 2893 2891 2889 2887 2884 2882 2879 2877
2818 2821 2823 2825 2829 2832 2835 2838 2840 2844 2847 2850 2853 2857 2861 2863 2865 2867 2869 2871 2874 2876 2878 2881 2883 2885 2888 2890 2892 2893 2895 2897 2897 2898 2898 2899 2899 2899 2898 2897 2896 2895 2894 2893 2891 2889 2888 2886 2884 2882 2880 2878 2876 2874
2820 2823 2826 2827 2830 2832 2836 2840 2842 2845 2849 2852 2855 2857 2859 2862 2863 2865 2867 2869 2871 2873 2876 2878 2880 2882 2885 2887 2888 2890 2891 2892 2892 2893 2893 2894 2894 2894 2894 2893 2891 2890 2889 2887 2886 2885 2883 2881 2880 2878 2876 2874 2872 2869